967  
ASUS44 KMAF 180301  
RWRMAF  
MIDLAND AREA WEATHER ROUNDUP  
NATIONAL WEATHER SERVICE MIDLAND TX  
900 PM CST SAT FEB 17 2018  
   
..IN SOUTHWEST TEXAS AND SOUTHEAST NEW MEXICO
 
 
 
CITY SKY/WX TMP DP RH WIND PRES REMARKS
 
ALPINE CLOUDY 55 38 53 CALM 30.26S  
ANDREWS FAIR 45 27 49 E6 30.20R  
ARTESIA CLOUDY 54 52 94 S10 30.15S  
BIG SPRING CLOUDY 52 29 41 NE17 30.19S  
CARLSBAD PTCLDY 50 44 80 SW6 30.14R  
DRYDEN N/A 65 40 39 N8 30.09S  
FORT STOCKTON CLOUDY 59 33 37 CALM 30.16R  
GUAD PASS MOCLDY 53 37 54 NE6 30.21  
HOBBS CLOUDY 46 28 49 SE12 30.18S  
LAMESA CLOUDY 46 19 34 E10 30.20R  
MARFA CLOUDY 52 40 63 NE9 30.21S  
MIDLAND AIRPK N/A 54 28 36 E12 30.19R  
MIDLAND INTL CLOUDY 54 27 35 NE14 30.18R  
ODESSA CLOUDY 52 27 38 E13 30.19R  
PECOS CLOUDY 56 36 46 CALM 30.15S  
PRESIDIO FAIR 71 44 37 N9 30.11R  
SEMINOLE PTCLDY 44 29 55 E5 30.20S  
SNYDER CLOUDY 49 28 43 NE8 30.19S  
WINK PTCLDY 57 36 45 E10 30.14R  

   
..OTHER STATIONS IN TEXAS
 
 
 
CITY SKY/WX TMP DP RH WIND PRES REMARKS
 
ABILENE CLOUDY 53 40 61 NE5 30.18S  
AMARILLO CLOUDY 39 18 42 S9 30.18S WCI 33  
AUSTIN PTCLDY 47 47 100 N5 30.16S  
BROWNSVILLE FAIR 72 69 90 SE14 30.05S  
CORPUS CHRISTI PTCLDY 70 69 97 SE14 30.06R  
DALLAS FTW CLOUDY 54 45 71 E5 30.18S  
DEL RIO MOCLDY 71 57 61 SE9 30.06R  
EL PASO CLOUDY 55 47 74 E3 30.15S  
HOUSTON INT CLOUDY 60 54 80 N5 30.15S  
LUBBOCK CLOUDY 45 30 55 S5 30.20R  
SAN ANGELO PTCLDY 61 39 44 NE14 30.14R  
SAN ANTONIO MOCLDY 58 50 75 E10 30.15R  
WACO PTCLDY 49 42 77 E5 30.18R  
WICHITA FALLS PTCLDY 37 14 38 S5 30.16S WCI 33  

   
..OTHER LOCATIONS IN NEW MEXICO
 
 
 
CITY SKY/WX TMP DP RH WIND PRES REMARKS
 
ALAMOGORDO MOCLDY 46 41 81 NE8 30.17F  
ALBUQUERQUE MOCLDY 44 29 55 SE8 30.16S WCI 39  
CANNON AFB PTCLDY 39 38 96 SE8 30.18F WCI 33  
CLOVIS NOT AVBL  
HOLLOMAN AFB NOT AVBL  
ROSWELL MOCLDY 49 38 65 S5 30.13S  
RUIDOSO NOT AVBL  
SANTA FE MOCLDY 41 22 46 E5 30.17R WCI 38  
TRUTH OR CONSE PTCLDY 53 41 63 CALM 30.16F  
TUCUMCARI PTCLDY 42 23 46 S5 30.12F WCI 39  

 
 
 
CLICK HERE TO GO TO PREVIOUS BULLETINS.

The Nexlab TX Page
The Nexlab NM Page Main Text Page